Regional Weather Roundup
Issued by NWS

Home | Current Version | Previous Version | Text Only | Print | Product List | Glossary Off
Versions: 1 2 3 4 5 6 7 8 9 10 11 12 13 14 15 16 17 18 19 20 21 22 23 24 25 26 27

000
ASUS45 KCYS 171110
RWRWY

WYOMING REGIONAL WEATHER ROUNDUP
NATIONAL WEATHER SERVICE CHEYENNE WY
400 AM MST FRI NOV 17 2017

NOTE:  "FAIR" INDICATES FEW OR NO CLOUDS BELOW 12,000 FEET
WITH NO SIGNIFICANT WEATHER AND/OR OBSTRUCTIONS TO VISIBILITY.

WYZ001-171200-
YELLOWSTONE NATIONAL PARK

CITY           SKY/WX    TMP DP  RH WIND       PRES   REMARKS
LK YELLOWSTONE   N/A     28  25  88 VRB3      29.67S
W YELLOWSTONE  NOT AVBL

$$
WYZ002>013-054>058-071-098>099-171200-
NORTHERN WYOMING

CITY           SKY/WX    TMP DP  RH WIND       PRES   REMARKS
JACKSON        MIX PCPN  33  30  88 S14       29.67F WCI  23
CODY           CLOUDY    32  31  96 NE5       29.63R WCI  27
GREYBULL       CLOUDY    37  34  89 W9        29.61R WCI  30
WORLAND        FAIR      35  35 100 NE3       29.59R
SHERIDAN       CLOUDY    33  33 100 N7        29.65R WCI  27
BUFFALO        FOG       33  30  88 SE7       29.63S VSB 1/2 WCI  27
GILLETTE       CLOUDY    33  32  96 CALM      29.63S
HULETT         PTSUNNY   34  32  93 CALM      29.63F
NEWCASTLE      CLOUDY    37  32  81 S6        29.62F WCI  33

$$
WYZ014>020-022>026-101>103-171200-
CENTRAL WYOMING

CITY           SKY/WX    TMP DP  RH WIND       PRES   REMARKS
BIG PINEY      MIX PCPN  33  32  96 CALM      29.71S
PINEDALE       CLOUDY    32  32 100 CALM      29.71F
DUBOIS         CLOUDY    32  30  93 NW13      29.63F WCI  22
LANDER         FAIR      41  33  73 SE8       29.61F
RIVERTON       CLOUDY    39  35  86 W8        29.64R WCI  33
CASPER         CLOUDY    36  34  92 N14       29.65R WCI  27
DOUGLAS        CLOUDY    49  38  65 NW23G31   29.63R

$$
WYZ021-027>030-104>119-171200-
SOUTHERN WYOMING

CITY           SKY/WX    TMP DP  RH WIND       PRES   REMARKS
EVANSTON       CLOUDY    38  38 100 W12       29.71F WCI  30
FORT BRIDGER   FAIR      39  38  98 W16G26    29.74F WCI  30
ROCK SPRINGS   LGT RAIN  37  36  96 W14       29.73S WCI  28
DIXON          CLOUDY    50  27  40 SW13      29.75S
RAWLINS        LGT RAIN  40  36  86 W20G30    29.72R WCI  30
SARATOGA       CLOUDY    50  28  43 SW35G44   29.69S
LARAMIE        FAIR      46  28  49 SW25G35   29.67F
CHEYENNE       FAIR      54  27  35 W20       29.65F
TORRINGTON     FAIR      44  30  57 E7        29.58F
PINE BLUFFS    FAIR      37  28  70 MISG      29.62F

$$




USA.gov is the U.S. government's official web portal to all federal, state and local government web resources and services.